Location: Rio Negrinho
(26.2394°S, 49.4999°W)
Time: 01:38:40
(UTC+00:00)

SEDSat Delta rocket - Pass Details

Date: 02 October 2020
Orbit: 533 x 1000 km, 31.4° (Epoch: 20 October)

Event Time Altitude Azimuth Distance (km) Brightness Sun altitude
Rises 22:33:42 0° 295° (WNW) 3,422 7.7 -17.4°
Reaches altitude 10° 22:36:25 10° 296° (WNW) 2,413 6.8 -18.0°
Maximum altitude 22:42:07 78° 21° (NNE) 760 3.3 -19.2°
Enters shadow 22:44:06 38° 100° (E) 1,080 3.8 -19.7°
